{"data":{"norad_id":62098,"intl_designator":"2024-220L","name":"STARLINK-11386 [DTC]","alt_names":[],"object_type":"PAYLOAD","status":"ACTIVE","operator":null,"country":"US","launch_date":"2024-11-25","launch_site_code":"AFETR","launch_vehicle":null,"mission":null,"orbit_class":"UNKNOWN","rcs_meters":null,"size_class":null,"mass_kg":null,"dimensions":null,"purposes":["comms"],"wikipedia_slug":null,"has_3d_model":false,"image_url":null,"decayed_at":null,"tle_current":{"epoch":"2026-09-20T10:07:13.804320Z","epoch_age_seconds":188211,"freshness":"STALE","line1":"1 62098U 24220L   26263.42168755  .00171954  00000+0  13148-2 0  9997","line2":"2 62098  42.9998 308.9193 0000579 262.5046  97.5755 15.70862791105580","mean_motion":15.70862791,"eccentricity":5.79e-5,"inclination_deg":42.9998,"raan_deg":308.9193,"arg_perigee_deg":262.5046,"mean_anomaly_deg":97.5755,"bstar":0.0013148,"rev_number":10558,"period_min":91.669368467459,"perigee_km":356.03998998799,"apogee_km":356.81985283749,"semimajor_km":6734.5669214127,"source":"CELESTRAK","updated_at":"2026-09-22T09:00:49.498172Z"}}}